Погода в Новополе

Украина / Житомирская область     50°26′27″N   28°27′42″E
темп.,
°C
ветер,
м/с
пор.,
м/с
влажн.,
%
обл.,
%
осадки,
мм/ч
давл.,
гПа
погр.,
м
26 февраля, пт
пт2623:00+3з34950 0.0 102856
02:00+3зюз47930 0.0 1026104
05:00+2зюз410910 0.0 1025169
08:00+3з511910 0.0 1023225
11:00+7з610860 0.0 1023345
14:00+10з611820 0.0 1021483
17:00+8зсз5119252 0.0 1020401
20:00+7з4119274 0.0 1020369
27 февраля, сб
сб2723:00+6зсз51193100 0.1 1018594
02:00+4зсз61186100 0.2 1019631
05:00+3зсз61289100 0.0 1018655
08:00+3зсз71279100 0.1 10181001
11:00+3зсз71292100 0.0 1017780
14:00+3зсз71290100 0.1 1017926
17:00+2сз91387100 0.3 10181047
20:00+1сз6138697 0.3 1020689
28 февраля, вс
вс2823:00+1ссз699692 0.3 1021615
02:00+1ссз599796 0.6 1024624
05:000ссз61095100 0.3 1024630
08:000ссз699197 0.4 1026755
11:00+1ссз6880100 0.3 1026899
14:00+2сз6972100 0.3 10271087
17:00+1сз6974100 0.1 1027990
20:00+1сз51074100 0.1 1028906
1 марта, пн
пн123:000сз41084100 0.0 1028471
02:00−1сз379499 0.1 1029316
05:000сз479790 0.2 1028357
08:00+1сз469795 0.5 1028421
11:00+2сз3598100 0.4 1029303
14:00+2ссз2397100 0.9 1030189
17:00+2ссз2398100 0.0 103188
20:00+1сз2398100 0.1 103299
2 марта, вт
вт223:00+1зсз359698 0.0 1033165
02:00+1зсз369489 0.1 1033198
05:00+1з599098 0.0 1032316
08:00+1з6119399 0.0 1031311
11:00+6зсз7137193 0.0 1030623
14:00+9зсз8136052 0.0 1028888
17:00+7зсз613670 0.0 1027822
20:00+5зсз615770 0.0 1028510